2017-008AN

Last updated on Feb. 28, 2017, 12:15 a.m. UTC

1 41984U 17008AN  17058.89649949  .00002517  00000-0  11446-3 0  9995
2 41984  97.5117 120.5135 0007425 214.7302 145.3450 15.21659118  1756
UTC
Height (km)
Latitude
Longitude
Inclination
Orbital Period
UTC large
Height (km)
Speed (km/s)
/
Latitude / Longitude
Inclination (degrees)
Orbital Period (minutes)
Azimuth
Elevation
Range (km)
Doppler Factor
iOS Compass Heading
iOS Angle